When you browse on this site, cookies collect data to enhance your experience and personalize the content and advertising you see.
Visit our Privacy Policy to learn more. By continuing to use the site, you agree to this use of cookies and data.
  • In Denmark
  • List of Countries
  • For 7 days
  • Water Temperature
  • Satellite Maps
  • Weather Map
  • Weather Widgets
  • user-avatar
    Login

    Hourly Weather Alekseevka

    Today, 20 May, Monday

    Time Temperature Precipitation Wind Pressure Humidity
    00:00 +10°C° 0 mm 2 mps 746 mmHg 74%
    01:00 +9°C° 0 mm 2 mps 746 mmHg 74%
    02:00 +10°C° 0 mm 1 mps 746 mmHg 73%
    03:00 +9°C° 0 mm 1 mps 746 mmHg 71%
    04:00 +9°C° 0 mm 1 mps 747 mmHg 72%
    05:00 +10°C° 0 mm 1 mps 747 mmHg 72%
    06:00 +10°C° 0 mm 1 mps 747 mmHg 72%
    07:00 +12°C° 0 mm 1 mps 747 mmHg 67%
    08:00 +12°C° 0 mm 0 mps 747 mmHg 62%
    09:00 +15°C° 0 mm 0 mps 748 mmHg 56%
    10:00 +18°C° 0 mm 1 mps 748 mmHg 55%
    11:00 +18°C° 0 mm 2 mps 748 mmHg 53%
    12:00 +19°C° 0 mm 3 mps 748 mmHg 51%
    13:00 +19°C° 0 mm 3 mps 748 mmHg 52%
    14:00 +20°C° 0 mm 3 mps 747 mmHg 53%
    15:00 +20°C° 0 mm 3 mps 747 mmHg 53%
    16:00 +20°C° 0 mm 3 mps 747 mmHg 56%
    17:00 +20°C° 0 mm 3 mps 747 mmHg 60%
    18:00 +19°C° 0 mm 3 mps 747 mmHg 63%
    19:00 +17°C° 0 mm 2 mps 747 mmHg 67%
    20:00 +16°C° 0 mm 2 mps 747 mmHg 71%
    21:00 +14°C° 0 mm 1 mps 747 mmHg 75%
    22:00 +13°C° 0 mm 1 mps 747 mmHg 75%
    23:00 +13°C° 0 mm 1 mps 747 mmHg 76%

    Tomorrow, 21 May, Tuesday

    Time Temperature Precipitation Wind Pressure Humidity
    00:00 +12°C° 0 mm 1 mps 748 mmHg 76%
    01:00 +11°C° 0 mm 1 mps 748 mmHg 75%
    02:00 +11°C° 0 mm 1 mps 748 mmHg 75%
    03:00 +9°C° 0 mm 2 mps 748 mmHg 74%
    04:00 +10°C° 0 mm 2 mps 748 mmHg 74%
    05:00 +10°C° 0 mm 2 mps 748 mmHg 74%
    06:00 +10°C° 0 mm 2 mps 748 mmHg 74%
    07:00 +13°C° 0 mm 2 mps 748 mmHg 71%
    08:00 +15°C° 0 mm 2 mps 748 mmHg 67%
    09:00 +16°C° 0 mm 2 mps 748 mmHg 63%
    10:00 +18°C° 0 mm 2 mps 748 mmHg 60%
    11:00 +19°C° 0 mm 2 mps 748 mmHg 58%
    12:00 +20°C° 0 mm 2 mps 748 mmHg 55%
    13:00 +21°C° 0 mm 2 mps 747 mmHg 54%
    14:00 +21°C° 0 mm 3 mps 747 mmHg 52%
    15:00 +22°C° 0 mm 3 mps 747 mmHg 51%
    16:00 +22°C° 0 mm 3 mps 746 mmHg 56%
    17:00 +22°C° 0 mm 3 mps 746 mmHg 61%
    18:00 +21°C° 0 mm 3 mps 746 mmHg 65%
    19:00 +20°C° 0 mm 3 mps 746 mmHg 70%
    20:00 +18°C° 0 mm 3 mps 745 mmHg 74%
    21:00 +16°C° 0 mm 3 mps 745 mmHg 79%
    22:00 +16°C° 0 mm 3 mps 745 mmHg 80%
    23:00 +14°C° 0 mm 3 mps 745 mmHg 82%

    Day after tomorrow, 22 May, Wednesday

    Time Temperature Precipitation Wind Pressure Humidity
    00:00 +13°C° 0 mm 3 mps 745 mmHg 83%
    01:00 +13°C° 0 mm 3 mps 745 mmHg 83%
    02:00 +12°C° 0 mm 3 mps 745 mmHg 83%
    03:00 +12°C° 0 mm 3 mps 745 mmHg 83%
    04:00 +12°C° 0 mm 3 mps 744 mmHg 82%
    05:00 +12°C° 0 mm 3 mps 744 mmHg 82%
    06:00 +13°C° 0 mm 2 mps 744 mmHg 82%
    07:00 +14°C° 0 mm 3 mps 744 mmHg 77%
    08:00 +17°C° 0 mm 3 mps 744 mmHg 72%
    09:00 +19°C° 0 mm 3 mps 743 mmHg 67%
    10:00 +20°C° 0 mm 3 mps 743 mmHg 63%
    11:00 +21°C° 0 mm 3 mps 743 mmHg 60%
    12:00 +22°C° 0 mm 3 mps 743 mmHg 56%
    13:00 +22°C° 0 mm 4 mps 742 mmHg 56%
    14:00 +23°C° 0 mm 4 mps 742 mmHg 57%
    15:00 +23°C° 0 mm 5 mps 742 mmHg 57%
    16:00 +22°C° 0.1 mm 4 mps 741 mmHg 61%
    17:00 +22°C° 0.1 mm 4 mps 741 mmHg 65%
    18:00 +22°C° 0.1 mm 4 mps 740 mmHg 68%
    19:00 +20°C° 0.1 mm 3 mps 740 mmHg 74%
    20:00 +18°C° 0.1 mm 3 mps 740 mmHg 79%
    21:00 +17°C° 0.1 mm 3 mps 740 mmHg 84%
    22:00 +16°C° 0 mm 3 mps 740 mmHg 85%
    23:00 +16°C° 0 mm 3 mps 740 mmHg 86%

    23 May, Thursday

    Time Temperature Precipitation Wind Pressure Humidity
    00:00 +14°C° 0 mm 4 mps 740 mmHg 87%
    01:00 +14°C° 0 mm 4 mps 739 mmHg 86%
    02:00 +14°C° 0 mm 4 mps 739 mmHg 85%
    03:00 +14°C° 0 mm 4 mps 739 mmHg 84%
    04:00 +14°C° 0 mm 5 mps 739 mmHg 84%
    05:00 +14°C° 0 mm 5 mps 739 mmHg 83%
    06:00 +14°C° 0 mm 5 mps 739 mmHg 83%
    07:00 +15°C° 0 mm 5 mps 738 mmHg 80%
    08:00 +17°C° 0 mm 5 mps 738 mmHg 78%
    09:00 +19°C° 0 mm 5 mps 738 mmHg 75%
    10:00 +21°C° 0.2 mm 5 mps 738 mmHg 72%
    11:00 +22°C° 0.2 mm 5 mps 738 mmHg 69%
    12:00 +23°C° 0.2 mm 5 mps 738 mmHg 66%
    13:00 +23°C° 0.6 mm 5 mps 738 mmHg 66%
    14:00 +23°C° 0.6 mm 5 mps 737 mmHg 65%
    15:00 +25°C° 0.6 mm 5 mps 737 mmHg 65%
    16:00 +23°C° 0.5 mm 5 mps 737 mmHg 68%
    17:00 +23°C° 0.5 mm 4 mps 737 mmHg 71%
    18:00 +22°C° 0.5 mm 3 mps 737 mmHg 74%
    19:00 +21°C° 0.1 mm 3 mps 737 mmHg 78%
    20:00 +20°C° 0.1 mm 2 mps 737 mmHg 82%
    21:00 +18°C° 0.1 mm 2 mps 737 mmHg 85%
    22:00 +17°C° 0 mm 2 mps 737 mmHg 87%
    23:00 +17°C° 0 mm 2 mps 737 mmHg 89%

    24 May, Friday

    Time Temperature Precipitation Wind Pressure Humidity
    00:00 +16°C° 0 mm 1 mps 737 mmHg 90%
    01:00 +16°C° 0 mm 1 mps 737 mmHg 91%
    02:00 +15°C° 0 mm 1 mps 737 mmHg 92%
    03:00 +15°C° 0 mm 1 mps 737 mmHg 93%
    04:00 +15°C° 0 mm 1 mps 738 mmHg 92%
    05:00 +16°C° 0 mm 1 mps 738 mmHg 92%
    06:00 +16°C° 0 mm 1 mps 738 mmHg 92%
    07:00 +18°C° 0 mm 1 mps 738 mmHg 88%
    08:00 +19°C° 0 mm 1 mps 738 mmHg 84%
    09:00 +20°C° 0 mm 2 mps 738 mmHg 80%
    10:00 +20°C° 0.3 mm 2 mps 738 mmHg 77%
    11:00 +21°C° 0.3 mm 2 mps 738 mmHg 74%
    12:00 +23°C° 0.3 mm 2 mps 738 mmHg 70%
    13:00 +23°C° 0.1 mm 2 mps 738 mmHg 68%
    14:00 +24°C° 0.1 mm 2 mps 738 mmHg 65%
    15:00 +24°C° 0.1 mm 2 mps 738 mmHg 63%
    16:00 +24°C° 0.5 mm 2 mps 738 mmHg 66%
    17:00 +24°C° 0.5 mm 2 mps 737 mmHg 69%
    18:00 +23°C° 0.5 mm 2 mps 737 mmHg 73%
    19:00 +21°C° 1.6 mm 2 mps 737 mmHg 77%
    20:00 +20°C° 1.6 mm 2 mps 737 mmHg 82%
    21:00 +18°C° 1.6 mm 2 mps 737 mmHg 87%
    22:00 +18°C° 0.2 mm 2 mps 737 mmHg 87%
    23:00 +18°C° 0.2 mm 2 mps 737 mmHg 87%

    25 May, Saturday

    Time Temperature Precipitation Wind Pressure Humidity
    00:00 +17°C° 0.2 mm 2 mps 737 mmHg 87%
    01:00 +18°C° 0 mm 1 mps 737 mmHg 88%
    02:00 +18°C° 0 mm 1 mps 737 mmHg 89%
    03:00 +15°C° 0 mm 0 mps 736 mmHg 90%
    04:00 +18°C° 0 mm 1 mps 736 mmHg 89%
    05:00 +18°C° 0 mm 1 mps 737 mmHg 88%
    06:00 +18°C° 0 mm 1 mps 737 mmHg 88%
    07:00 +20°C° 0 mm 1 mps 737 mmHg 83%
    08:00 +21°C° 0 mm 1 mps 737 mmHg 77%
    09:00 +22°C° 0 mm 1 mps 737 mmHg 72%
    10:00 +23°C° 1.3 mm 1 mps 737 mmHg 69%
    11:00 +23°C° 1.3 mm 2 mps 736 mmHg 67%
    12:00 +24°C° 1.3 mm 2 mps 736 mmHg 64%
    13:00 +24°C° 0.3 mm 2 mps 736 mmHg 64%
    14:00 +24°C° 0.3 mm 2 mps 736 mmHg 63%
    15:00 +24°C° 0.3 mm 2 mps 736 mmHg 62%
    16:00 +24°C° 0 mm 1 mps 736 mmHg 62%
    17:00 +24°C° 0 mm 1 mps 735 mmHg 62%
    18:00 +24°C° 0 mm 1 mps 735 mmHg 62%
    19:00 +23°C° 0.1 mm 1 mps 735 mmHg 67%
    20:00 +21°C° 0.1 mm 1 mps 735 mmHg 72%
    21:00 +20°C° 0.1 mm 1 mps 735 mmHg 77%
    22:00 +19°C° 0.2 mm 1 mps 734 mmHg 80%
    23:00 +18°C° 0.2 mm 1 mps 734 mmHg 83%
    Show more